Location: Decatur Area Astronomy Club
(40.0275°N, 88.7810°W)
Time: 16:16:31
(UTC-06:00)

Daily predictions for brighter satellites

Satellite Brightness Start Highest point End
(mag) Time Altitude Azimuth Time Altitude Azimuth Time Altitude Azimuth
SL-8 Rocket 4.2 16:53:36 10° N 16:59:46 78° W 17:05:54 10° S
Cosmos 1812 2.8 16:59:27 10° S 17:03:18 83° W 17:07:11 10° N
Tiangong 1 1.1 17:03:19 10° W 17:06:21 63° NNW 17:09:19 10° ENE
CZ-4 R/B 1.4 17:03:27 10° SSE 17:07:34 68° ENE 17:11:40 10° N
MOS 1 4.3 17:02:38 10° SSE 17:08:11 63° ENE 17:13:46 10° N
ISS -0.9 17:07:00 10° NNW 17:08:19 12° N 17:09:37 10° NNE
Meteor 1-12 Rocket 4.4 17:06:06 10° N 17:11:58 88° E 17:17:54 10° S
SPOT 3 Rocket 3.6 17:06:57 10° SSE 17:12:03 63° ENE 17:17:10 10° N
COSMOS 2487 2.4 17:08:56 10° NNW 17:12:32 69° ENE 17:16:06 10° SSE
MSX 4.1 17:07:09 10° SE 17:12:34 44° ENE 17:17:59 10° N
Cosmos 2366 rocket 4.2 17:07:36 10° N 17:13:58 83° W 17:20:14 10° S
AQUARIUS 4.1 17:13:01 10° SSE 17:17:29 69° ENE 17:21:57 10° N
USA 116 4.4 17:12:45 10° NNE 17:18:07 80° ESE 17:23:04 10° S
NOSS 2-1 (D) 3.3 17:21:42 10° SSW 17:25:29 72° ESE 17:29:25 12° NE
Cosmos 2297 3.7 17:20:04 10° SSW 17:25:42 85° ESE 17:31:22 10° NNE
NOSS 2-1 (C) 3.3 17:22:21 10° SSW 17:26:10 70° ESE 17:30:04 12° NE
SJ-12 4.2 17:27:58 10° S 17:32:03 72° WSW 17:36:11 10° NNW
COSMO-SKYMED 1 3.2 17:28:40 10° NNE 17:32:41 36° E 17:36:40 10° SSE
CZ-3A R/B 4.3 17:28:05 10° W 17:33:35 46° N 17:55:09 15° ENE
Cosmos 2278 Rocket 3.4 17:28:53 10° SW 17:34:10 40° WNW 17:39:30 10° N
Meteor 2-14 Rocket 4.5 17:28:09 10° N 17:34:13 58° E 17:40:14 10° SSE
Cosmos 921 Rocket 2.9 17:32:08 10° SSW 17:36:23 85° ESE 17:40:46 10° NNE
Cosmos 1025 Rocket 3.5 17:34:10 10° SSE 17:38:14 39° E 17:42:20 10° NNE
Abrixas 2.7 17:35:26 10° WNW 17:38:22 68° SW 17:41:14 10° SE
Cosmos 1666 3.5 17:35:22 10° NNE 17:38:46 28° ENE 17:42:10 10° SE
IDEFIX/ARIANE 42P 3.0 17:38:17 10° S 17:43:27 67° WSW 17:48:37 10° NNW
Cosmos 1346 Rocket 3.6 17:40:19 10° SSW 17:44:06 52° WNW 17:47:54 10° N
BREEZE-M DEB (TANK) 3.9 17:43:12 10° NW 17:44:32 14° N 17:45:01 14° N
NOSS 2-1 (E) 3.4 17:41:01 10° SW 17:44:52 80° NW 17:48:16 16° NNE
Thor Agena Rocket 4.0 17:40:11 10° N 17:45:22 63° WNW 17:50:34 10° SSW
Cosmos 1821 Rocket 4.0 17:41:10 10° N 17:47:10 55° E 17:53:07 10° SSE
ASTRO F (AKARI) 4.3 17:47:54 10° N 17:51:01 76° WNW 17:54:11 10° SSW
Cosmos 1833 Rocket 2.6 17:45:21 10° NNW 17:51:01 87° ENE 17:56:39 10° SSE
Timation 2 Rocket 4.5 17:46:52 10° NNW 17:53:42 73° WSW 18:00:33 10° SSE
YAOGAN 1 3.6 17:51:21 10° S 17:55:32 48° W 17:59:44 10° NNW
CZ-3B DEB 3.5 17:53:23 10° W 17:57:34 36° NNW 18:04:32 16° NE
Cosmos 1605 Rocket 4.4 17:52:05 10° N 17:57:52 37° ENE 18:03:31 10° SE
Meteor 2-16 Rocket 4.4 17:53:50 10° N 17:59:57 85° E 18:06:02 10° S
Cosmos 2082 Rocket 2.6 17:54:48 10° NNW 18:00:25 67° WSW 18:06:03 10° S
USA 234 3.5 17:56:14 16° NE 18:01:31 65° NW 18:07:58 10° WSW
SKYMED 3 4.4 17:58:26 10° NNE 18:02:47 80° ESE 18:07:07 10° S
Cosmos 1743 3.0 17:59:05 10° NNW 18:02:56 69° W 18:06:45 10° S
CZ-2C R/B 4.0 18:00:32 10° SSW 18:05:14 39° W 18:10:04 10° NNW
Intercosmos 25 3.5 18:04:00 10° NNW 18:07:06 58° W 18:10:41 10° S
Meteor 1-28 Rocket 3.3 18:06:27 42° ENE 18:07:15 50° E 18:10:55 10° S
BREEZE M DEB (TANK) 2.8 18:04:16 10° WSW 18:12:13 64° NNW 18:13:17 40° NNE
NOSS 3-4 (A) 3.7 18:12:36 10° NNW 18:19:41 82° ENE 18:27:11 10° SE
NOSS 3-4 (C) 3.7 18:12:42 10° NNW 18:19:47 81° ENE 18:27:17 10° SE
Cosmos 1484 Rocket 3.4 18:16:10 10° S 18:19:48 53° W 18:23:28 10° NNW
SKYMED 2 3.9 18:16:39 11° N 18:20:48 64° WNW 18:25:04 10° SSW
Delta 2 Rocket 4.1 18:17:32 10° WSW 18:21:00 40° S 18:21:53 34° SSE
Cosmos 407 Rocket 3.3 18:19:30 10° NNW 18:24:37 64° ENE 18:29:45 10° SSE
Cosmos 2056 Rocket 3.7 18:20:46 10° SSW 18:26:07 74° WNW 18:29:42 21° NNE
BREEZE M DEB (TANK) 3.7 18:24:51 10° NW 18:28:53 64° NNE 18:34:18 28° ESE
Okean 2 3.4 18:28:02 10° S 18:32:12 81° W 18:33:20 48° N
Cosmos 1892 Rocket 3.5 18:30:29 10° S 18:34:50 85° W 18:35:54 51° N
Cosmos 1727 Rocket 3.9 18:29:33 10° S 18:35:40 62° E 18:38:31 32° NNE
Cosmos 676 Rocket 4.1 18:30:59 10° N 18:35:31 54° NE 18:35:31 54° NE
Cosmos 2369 Rocket 2.5 18:31:51 10° S 18:36:50 47° ESE 18:36:50 47° ESE
Meteor 2-9 Rocket 4.4 18:32:53 10° NNW 18:38:15 67° W 18:43:30 10° S
Meteor 1-15 Rocket 4.3 18:33:24 10° N 18:39:18 84° W 18:45:04 10° S
NOAA 12 4.0 18:35:14 10° SSE 18:40:31 86° WSW 18:45:49 10° NNW
Cosmos 1726 Rocket 3.8 18:37:21 10° NNW 18:41:49 70° W 18:46:14 10° S
Tiangong 1 3.4 18:39:46 10° WNW 18:41:00 21° WNW 18:41:00 21° WNW
FALCON 9 R/B 3.4 18:23:44 10° W 18:46:15 65° S 18:49:07 40° ESE
Cosmos 1340 4.1 18:51:31 10° SSW 18:53:52 34° SW 18:53:52 34° SW
ATLAS 3B CENTAUR R/B 4.3 18:37:13 10° W 18:55:40 42° SSW 19:00:26 24° SSE
Cosmos 1943 Rocket 4.4 19:00:42 10° S 19:01:06 12° SSE 19:01:06 12° SSE
Cosmos 1339 Rocket 4.4 19:05:06 10° S 19:11:10 78° W 19:12:02 65° NNW
Cosmos 1452 Rocket 4.0 19:09:50 10° SSW 19:14:16 57° WSW 19:14:16 57° WSW
GEOS 3 Rocket 4.4 19:17:19 44° NW 19:17:19 44° NW 19:20:47 10° NW
